Location: Ayer Observatory
(42.2600°N, 71.0700°W)
Time: 09:42:30
(UTC-04:00)

XW-2A - Pass Details

Date: 10 August 2020
Orbit: 428 x 443 km, 97.3° (Epoch: 21 September)

Event Time Altitude Azimuth Distance (km) Brightness Sun altitude
Exits shadow 22:15:48 - 235° (SW) 1,757 ? -22.6°
Maximum altitude 22:17:53 10° 269° (W) 1,502 ? -22.8°
Drops below altitude 10° 22:18:33 10° 280° (W) 1,530 ? -22.9°
Sets 22:22:10 0° 323° (NW) 2,405 ? -23.3°
